www.cux-wetter.de
Wetterdaten: Montag, 27.07.2015
Datum Zeit Temp. A. Feuchte A. Luftdruck Regen Wind Richtung Richtung Sonnenschein Solar Taupunkt Windchill Windben
27.07.2015 00:00 13,6 C 95 % 1004,0 hPa 0,0 l/m 2,6 km/h (1 Bft) O 96 0 min 0 W/m 12,8 C 13,6 C 4,8 km/h (1 Bft)
27.07.2015 00:05 13,6 C 95 % 1004,0 hPa 0,0 l/m 2,8 km/h (1 Bft) SO 126 0 min 0 W/m 12,8 C 13,6 C 6,4 km/h (2 Bft)
27.07.2015 00:10 13,5 C 95 % 1003,9 hPa 0,0 l/m 3,1 km/h (1 Bft) S-SO 155 0 min 0 W/m 12,7 C 13,5 C 6,4 km/h (2 Bft)
27.07.2015 00:15 13,5 C 95 % 1003,8 hPa 0,0 l/m 2,5 km/h (1 Bft) S-SO 153 0 min 0 W/m 12,7 C 13,5 C 4,8 km/h (1 Bft)
27.07.2015 00:20 13,5 C 95 % 1003,7 hPa 0,0 l/m 2,7 km/h (1 Bft) SO 140 0 min 0 W/m 12,7 C 13,5 C 4,8 km/h (1 Bft)
27.07.2015 00:25 13,4 C 95 % 1003,7 hPa 0,0 l/m 3,3 km/h (1 Bft) SO 128 0 min 0 W/m 12,6 C 13,4 C 6,4 km/h (2 Bft)
27.07.2015 00:30 13,5 C 95 % 1003,6 hPa 0,0 l/m 2,7 km/h (1 Bft) O-SO 121 0 min 0 W/m 12,7 C 13,5 C 4,8 km/h (1 Bft)
27.07.2015 00:35 13,4 C 95 % 1003,6 hPa 0,0 l/m 2,7 km/h (1 Bft) S-SO 157 0 min 0 W/m 12,6 C 13,4 C 8,0 km/h (2 Bft)
27.07.2015 00:40 13,4 C 95 % 1003,5 hPa 0,0 l/m 3,4 km/h (1 Bft) SO 137 0 min 0 W/m 12,6 C 13,4 C 6,4 km/h (2 Bft)
27.07.2015 00:45 13,5 C 95 % 1003,4 hPa 0,0 l/m 4,3 km/h (1 Bft) O-SO 119 0 min 0 W/m 12,7 C 13,5 C 8,0 km/h (2 Bft)
27.07.2015 00:50 13,5 C 95 % 1003,4 hPa 0,0 l/m 3,6 km/h (1 Bft) O-SO 114 0 min 0 W/m 12,7 C 13,5 C 9,7 km/h (2 Bft)
27.07.2015 00:55 13,4 C 95 % 1003,3 hPa 0,0 l/m 3,2 km/h (1 Bft) O-SO 111 0 min 0 W/m 12,6 C 13,4 C 8,0 km/h (2 Bft)
27.07.2015 01:00 13,4 C 95 % 1003,2 hPa 0,0 l/m 2,5 km/h (1 Bft) SO 124 0 min 0 W/m 12,6 C 13,4 C 6,4 km/h (2 Bft)
27.07.2015 01:05 13,4 C 95 % 1003,1 hPa 0,0 l/m 2,6 km/h (1 Bft) O-SO 122 0 min 0 W/m 12,6 C 13,4 C 4,8 km/h (1 Bft)
27.07.2015 01:10 13,4 C 95 % 1003,1 hPa 0,0 l/m 3,0 km/h (1 Bft) SO 134 0 min 0 W/m 12,6 C 13,4 C 6,4 km/h (2 Bft)
27.07.2015 01:15 13,4 C 95 % 1003,0 hPa 0,0 l/m 3,7 km/h (1 Bft) SO 138 0 min 0 W/m 12,6 C 13,4 C 8,0 km/h (2 Bft)
27.07.2015 01:20 13,4 C 95 % 1002,9 hPa 0,0 l/m 3,1 km/h (1 Bft) O-SO 121 0 min 0 W/m 12,6 C 13,4 C 9,7 km/h (2 Bft)
27.07.2015 01:25 13,3 C 95 % 1002,8 hPa 0,0 l/m 4,0 km/h (1 Bft) O-SO 121 0 min 0 W/m 12,5 C 13,3 C 9,7 km/h (2 Bft)
27.07.2015 01:30 13,3 C 95 % 1002,7 hPa 0,0 l/m 3,5 km/h (1 Bft) NO 47 0 min 0 W/m 12,5 C 13,3 C 11,3 km/h (2 Bft)
27.07.2015 01:35 13,3 C 95 % 1002,6 hPa 0,0 l/m 2,9 km/h (1 Bft) O-SO 105 0 min 0 W/m 12,5 C 13,3 C 8,0 km/h (2 Bft)
27.07.2015 01:40 13,3 C 95 % 1002,6 hPa 0,0 l/m 4,2 km/h (1 Bft) SO 133 0 min 0 W/m 12,5 C 13,3 C 9,7 km/h (2 Bft)
27.07.2015 01:45 13,3 C 95 % 1002,4 hPa 0,0 l/m 4,8 km/h (1 Bft) O-SO 118 0 min 0 W/m 12,5 C 13,3 C 9,7 km/h (2 Bft)
27.07.2015 01:50 13,3 C 95 % 1002,3 hPa 0,0 l/m 2,9 km/h (1 Bft) S-SO 150 0 min 0 W/m 12,5 C 13,3 C 9,7 km/h (2 Bft)
27.07.2015 01:55 13,3 C 95 % 1002,2 hPa 0,0 l/m 3,4 km/h (1 Bft) O-NO 69 0 min 0 W/m 12,5 C 13,3 C 11,3 km/h (2 Bft)
27.07.2015 02:00 13,2 C 95 % 1002,1 hPa 0,0 l/m 3,4 km/h (1 Bft) SO 127 0 min 0 W/m 12,4 C 13,2 C 8,0 km/h (2 Bft)
27.07.2015 02:05 13,2 C 95 % 1002,0 hPa 0,0 l/m 4,4 km/h (1 Bft) O-SO 116 0 min 0 W/m 12,4 C 13,2 C 8,0 km/h (2 Bft)
27.07.2015 02:10 13,2 C 95 % 1002,0 hPa 0,0 l/m 4,2 km/h (1 Bft) SO 128 0 min 0 W/m 12,4 C 13,2 C 11,3 km/h (2 Bft)
27.07.2015 02:15 13,2 C 95 % 1001,9 hPa 0,0 l/m 2,7 km/h (1 Bft) O-SO 109 0 min 0 W/m 12,4 C 13,2 C 6,4 km/h (2 Bft)
27.07.2015 02:20 13,2 C 95 % 1001,8 hPa 0,0 l/m 3,1 km/h (1 Bft) O-SO 121 0 min 0 W/m 12,4 C 13,2 C 6,4 km/h (2 Bft)
27.07.2015 02:25 13,1 C 95 % 1001,7 hPa 0,0 l/m 4,2 km/h (1 Bft) S-SO 163 0 min 0 W/m 12,3 C 13,1 C 11,3 km/h (2 Bft)
27.07.2015 02:30 13,1 C 95 % 1001,6 hPa 0,0 l/m 3,9 km/h (1 Bft) SO 140 0 min 0 W/m 12,3 C 13,1 C 9,7 km/h (2 Bft)
27.07.2015 02:35 13,1 C 95 % 1001,5 hPa 0,0 l/m 3,2 km/h (1 Bft) O-SO 117 0 min 0 W/m 12,3 C 13,1 C 6,4 km/h (2 Bft)
27.07.2015 02:40 13,1 C 95 % 1001,5 hPa 0,0 l/m 3,2 km/h (1 Bft) O-SO 103 0 min 0 W/m 12,3 C 13,1 C 9,7 km/h (2 Bft)
27.07.2015 02:45 13,1 C 95 % 1001,4 hPa 0,0 l/m 2,7 km/h (1 Bft) O 86 0 min 0 W/m 12,3 C 13,1 C 9,7 km/h (2 Bft)
27.07.2015 02:50 13,1 C 95 % 1001,2 hPa 0,0 l/m 3,8 km/h (1 Bft) O-SO 106 0 min 0 W/m 12,3 C 13,1 C 11,3 km/h (2 Bft)
27.07.2015 02:55 13,0 C 95 % 1001,2 hPa 0,0 l/m 2,1 km/h (1 Bft) SO 126 0 min 0 W/m 12,2 C 13,0 C 6,4 km/h (2 Bft)
27.07.2015 03:00 13,1 C 95 % 1001,2 hPa 0,0 l/m 3,1 km/h (1 Bft) S-SO 153 0 min 0 W/m 12,3 C 13,1 C 8,0 km/h (2 Bft)
27.07.2015 03:05 13,1 C 94 % 1001,0 hPa 0,0 l/m 5,1 km/h (1 Bft) S 173 0 min 0 W/m 12,2 C 13,1 C 9,7 km/h (2 Bft)
27.07.2015 03:10 13,1 C 95 % 1000,9 hPa 0,0 l/m 2,4 km/h (1 Bft) SO 139 0 min 0 W/m 12,3 C 13,1 C 6,4 km/h (2 Bft)
27.07.2015 03:15 13,0 C 94 % 1000,8 hPa 0,0 l/m 3,9 km/h (1 Bft) O 101 0 min 0 W/m 12,1 C 13,0 C 9,7 km/h (2 Bft)
27.07.2015 03:20 13,0 C 94 % 1000,7 hPa 0,0 l/m 5,0 km/h (1 Bft) SO 131 0 min 0 W/m 12,1 C 13,0 C 12,9 km/h (3 Bft)
27.07.2015 03:25 13,1 C 94 % 1000,6 hPa 0,0 l/m 4,6 km/h (1 Bft) SO 135 0 min 0 W/m 12,2 C 13,1 C 12,9 km/h (3 Bft)
27.07.2015 03:30 13,1 C 94 % 1000,6 hPa 0,0 l/m 4,8 km/h (1 Bft) S-SO 165 0 min 0 W/m 12,2 C 13,1 C 11,3 km/h (2 Bft)
27.07.2015 03:35 13,1 C 93 % 1000,6 hPa 0,0 l/m 6,2 km/h (2 Bft) SO 132 0 min 0 W/m 12,0 C 13,1 C 12,9 km/h (3 Bft)
27.07.2015 03:40 13,1 C 93 % 1000,5 hPa 0,0 l/m 6,2 km/h (2 Bft) SO 138 0 min 0 W/m 12,0 C 13,1 C 12,9 km/h (3 Bft)
27.07.2015 03:45 13,1 C 93 % 1000,4 hPa 0,0 l/m 7,7 km/h (2 Bft) S 180 0 min 0 W/m 12,0 C 12,3 C 16,1 km/h (3 Bft)
27.07.2015 03:50 13,1 C 93 % 1000,3 hPa 0,0 l/m 5,8 km/h (2 Bft) S 178 0 min 0 W/m 12,0 C 13,1 C 14,5 km/h (3 Bft)
27.07.2015 03:55 13,1 C 93 % 1000,3 hPa 0,0 l/m 6,7 km/h (2 Bft) SO 131 0 min 0 W/m 12,0 C 12,9 C 12,9 km/h (3 Bft)
27.07.2015 04:00 13,1 C 93 % 1000,2 hPa 0,0 l/m 6,9 km/h (2 Bft) S-SO 148 0 min 0 W/m 12,0 C 12,8 C 14,5 km/h (3 Bft)
27.07.2015 04:05 13,1 C 93 % 1000,1 hPa 0,0 l/m 7,0 km/h (2 Bft) S 170 0 min 0 W/m 12,0 C 12,7 C 14,5 km/h (3 Bft)
27.07.2015 04:10 13,1 C 93 % 1000,1 hPa 0,0 l/m 7,1 km/h (2 Bft) SO 138 0 min 0 W/m 12,0 C 12,7 C 12,9 km/h (3 Bft)
27.07.2015 04:15 13,1 C 93 % 1000,0 hPa 0,0 l/m 5,0 km/h (1 Bft) SO 125 0 min 0 W/m 12,0 C 13,1 C 12,9 km/h (3 Bft)
27.07.2015 04:20 13,2 C 93 % 999,9 hPa 0,0 l/m 5,6 km/h (2 Bft) O 100 0 min 0 W/m 12,1 C 13,2 C 11,3 km/h (2 Bft)
27.07.2015 04:25 13,1 C 93 % 999,8 hPa 0,2 l/m 6,7 km/h (2 Bft) O 99 0 min 0 W/m 12,0 C 12,9 C 12,9 km/h (3 Bft)
27.07.2015 04:30 13,1 C 94 % 999,7 hPa 0,0 l/m 4,6 km/h (1 Bft) O-SO 123 0 min 0 W/m 12,2 C 13,1 C 12,9 km/h (3 Bft)
27.07.2015 04:35 13,1 C 94 % 999,7 hPa 0,0 l/m 5,3 km/h (1 Bft) S-SO 148 0 min 0 W/m 12,2 C 13,1 C 11,3 km/h (2 Bft)
27.07.2015 04:40 13,1 C 94 % 999,7 hPa 0,0 l/m 5,7 km/h (2 Bft) SO 140 0 min 0 W/m 12,2 C 13,1 C 11,3 km/h (2 Bft)
27.07.2015 04:45 13,1 C 94 % 999,7 hPa 0,0 l/m 5,5 km/h (2 Bft) O-SO 119 0 min 0 W/m 12,2 C 13,1 C 11,3 km/h (2 Bft)
27.07.2015 04:50 13,1 C 94 % 999,7 hPa 0,0 l/m 6,1 km/h (2 Bft) SO 140 0 min 0 W/m 12,2 C 13,1 C 11,3 km/h (2 Bft)
27.07.2015 04:55 13,1 C 94 % 999,7 hPa 0,0 l/m 8,0 km/h (2 Bft) SO 146 0 min 0 W/m 12,2 C 12,1 C 14,5 km/h (3 Bft)
27.07.2015 05:00 13,1 C 93 % 999,6 hPa 0,0 l/m 9,1 km/h (2 Bft) S-SO 164 0 min 0 W/m 12,0 C 11,5 C 17,7 km/h (3 Bft)
27.07.2015 05:05 13,0 C 93 % 999,6 hPa 0,0 l/m 9,1 km/h (2 Bft) O-SO 117 0 min 0 W/m 11,9 C 11,4 C 16,1 km/h (3 Bft)
27.07.2015 05:10 13,0 C 93 % 999,5 hPa 0,2 l/m 8,1 km/h (2 Bft) O-SO 113 0 min 0 W/m 11,9 C 11,9 C 17,7 km/h (3 Bft)
27.07.2015 05:15 12,9 C 94 % 999,5 hPa 0,0 l/m 7,1 km/h (2 Bft) SO 139 0 min 0 W/m 12,0 C 12,5 C 17,7 km/h (3 Bft)
27.07.2015 05:20 12,9 C 94 % 999,4 hPa 0,0 l/m 6,2 km/h (2 Bft) SO 141 0 min 0 W/m 12,0 C 12,9 C 14,5 km/h (3 Bft)
27.07.2015 05:25 12,8 C 94 % 999,3 hPa 0,0 l/m 6,2 km/h (2 Bft) O-SO 117 0 min 0 W/m 11,9 C 12,8 C 14,5 km/h (3 Bft)
27.07.2015 05:30 12,8 C 94 % 999,2 hPa 0,0 l/m 7,0 km/h (2 Bft) S-SO 152 0 min 0 W/m 11,9 C 12,4 C 16,1 km/h (3 Bft)
27.07.2015 05:35 12,8 C 95 % 999,1 hPa 0,0 l/m 6,6 km/h (2 Bft) S-SO 163 0 min 0 W/m 12,0 C 12,7 C 14,5 km/h (3 Bft)
27.07.2015 05:40 12,8 C 95 % 999,1 hPa 0,0 l/m 6,3 km/h (2 Bft) S-SO 159 0 min 0 W/m 12,0 C 12,8 C 11,3 km/h (2 Bft)
27.07.2015 05:45 12,8 C 95 % 999,1 hPa 0,0 l/m 6,1 km/h (2 Bft) O-SO 112 0 min 0 W/m 12,0 C 12,8 C 12,9 km/h (3 Bft)
27.07.2015 05:50 12,8 C 95 % 999,0 hPa 0,0 l/m 5,4 km/h (2 Bft) S-SO 148 0 min 0 W/m 12,0 C 12,8 C 11,3 km/h (2 Bft)
27.07.2015 05:55 12,8 C 95 % 998,9 hPa 0,0 l/m 7,4 km/h (2 Bft) S 179 0 min 0 W/m 12,0 C 12,2 C 14,5 km/h (3 Bft)
27.07.2015 06:00 12,8 C 94 % 998,9 hPa 0,0 l/m 6,9 km/h (2 Bft) S 180 0 min 0 W/m 11,9 C 12,5 C 12,9 km/h (3 Bft)
27.07.2015 06:05 12,9 C 94 % 998,8 hPa 0,0 l/m 8,9 km/h (2 Bft) SO 141 0 min 0 W/m 12,0 C 11,4 C 17,7 km/h (3 Bft)
27.07.2015 06:10 12,9 C 94 % 998,8 hPa 0,0 l/m 7,7 km/h (2 Bft) SO 142 0 min 0 W/m 12,0 C 12,1 C 12,9 km/h (3 Bft)
27.07.2015 06:15 12,9 C 94 % 998,8 hPa 0,0 l/m 8,6 km/h (2 Bft) SO 138 0 min 0 W/m 12,0 C 11,5 C 14,5 km/h (3 Bft)
27.07.2015 06:20 12,9 C 94 % 998,7 hPa 0,0 l/m 7,4 km/h (2 Bft) SO 138 0 min 5 W/m 12,0 C 12,3 C 14,5 km/h (3 Bft)
27.07.2015 06:25 12,9 C 94 % 998,6 hPa 0,0 l/m 7,3 km/h (2 Bft) SO 136 0 min 5 W/m 12,0 C 12,3 C 14,5 km/h (3 Bft)
27.07.2015 06:30 12,9 C 94 % 998,5 hPa 0,0 l/m 6,7 km/h (2 Bft) S-SO 150 0 min 7 W/m 12,0 C 12,7 C 14,5 km/h (3 Bft)
27.07.2015 06:35 12,9 C 94 % 998,5 hPa 0,0 l/m 10,5 km/h (2 Bft) SO 127 0 min 7 W/m 12,0 C 10,5 C 22,5 km/h (4 Bft)
27.07.2015 06:40 12,9 C 94 % 998,5 hPa 0,0 l/m 10,3 km/h (2 Bft) SO 146 0 min 12 W/m 12,0 C 10,6 C 20,9 km/h (4 Bft)
27.07.2015 06:45 12,9 C 94 % 998,4 hPa 0,0 l/m 10,1 km/h (2 Bft) SO 131 0 min 21 W/m 12,0 C 10,7 C 19,3 km/h (3 Bft)
27.07.2015 06:50 12,9 C 95 % 998,3 hPa 0,0 l/m 7,4 km/h (2 Bft) S-SO 153 0 min 21 W/m 12,1 C 12,3 C 16,1 km/h (3 Bft)
27.07.2015 06:55 12,9 C 95 % 998,3 hPa 0,0 l/m 6,8 km/h (2 Bft) SO 134 0 min 30 W/m 12,1 C 12,7 C 14,5 km/h (3 Bft)
27.07.2015 07:00 12,9 C 95 % 998,3 hPa 0,0 l/m 10,1 km/h (2 Bft) SO 144 0 min 35 W/m 12,1 C 10,7 C 19,3 km/h (3 Bft)
27.07.2015 07:05 13,0 C 95 % 998,3 hPa 0,0 l/m 7,2 km/h (2 Bft) SO 138 0 min 32 W/m 12,2 C 12,5 C 20,9 km/h (4 Bft)
27.07.2015 07:10 12,9 C 95 % 998,3 hPa 0,0 l/m 11,1 km/h (2 Bft) O-SO 103 0 min 28 W/m 12,1 C 10,3 C 22,5 km/h (4 Bft)
27.07.2015 07:15 12,9 C 95 % 998,2 hPa 0,0 l/m 7,9 km/h (2 Bft) SO 143 0 min 21 W/m 12,1 C 12,0 C 16,1 km/h (3 Bft)
27.07.2015 07:20 12,9 C 95 % 998,1 hPa 0,0 l/m 9,2 km/h (2 Bft) S-SW 192 0 min 16 W/m 12,1 C 11,2 C 20,9 km/h (4 Bft)
27.07.2015 07:25 12,9 C 95 % 998,1 hPa 0,0 l/m 9,4 km/h (2 Bft) SO 146 0 min 25 W/m 12,1 C 11,1 C 20,9 km/h (4 Bft)
27.07.2015 07:30 12,9 C 95 % 998,0 hPa 0,0 l/m 11,6 km/h (2 Bft) SO 146 0 min 32 W/m 12,1 C 10,0 C 20,9 km/h (4 Bft)
27.07.2015 07:35 12,9 C 96 % 997,9 hPa 0,0 l/m 8,0 km/h (2 Bft) S-SW 194 0 min 21 W/m 12,3 C 11,9 C 14,5 km/h (3 Bft)
27.07.2015 07:40 12,9 C 96 % 997,8 hPa 0,0 l/m 8,8 km/h (2 Bft) SO 136 0 min 18 W/m 12,3 C 11,4 C 19,3 km/h (3 Bft)
27.07.2015 07:45 12,9 C 96 % 997,7 hPa 0,0 l/m 9,4 km/h (2 Bft) S 169 0 min 51 W/m 12,3 C 11,1 C 19,3 km/h (3 Bft)
27.07.2015 07:50 12,9 C 96 % 997,7 hPa 0,2 l/m 8,5 km/h (2 Bft) SO 140 0 min 47 W/m 12,3 C 11,6 C 22,5 km/h (4 Bft)
27.07.2015 07:55 12,9 C 96 % 997,6 hPa 0,0 l/m 8,8 km/h (2 Bft) SO 136 0 min 72 W/m 12,3 C 11,4 C 19,3 km/h (3 Bft)
27.07.2015 08:00 13,1 C 96 % 997,6 hPa 0,0 l/m 8,9 km/h (2 Bft) O-SO 103 0 min 56 W/m 12,5 C 11,6 C 20,9 km/h (4 Bft)
27.07.2015 08:05 13,0 C 96 % 997,5 hPa 0,0 l/m 12,1 km/h (2 Bft) O-SO 122 0 min 49 W/m 12,4 C 9,9 C 19,3 km/h (3 Bft)
27.07.2015 08:10 13,0 C 96 % 997,5 hPa 0,0 l/m 10,5 km/h (2 Bft) S-SO 163 0 min 47 W/m 12,4 C 10,7 C 19,3 km/h (3 Bft)
27.07.2015 08:15 13,0 C 96 % 997,5 hPa 0,0 l/m 9,3 km/h (2 Bft) S 170 0 min 60 W/m 12,4 C 11,3 C 24,1 km/h (4 Bft)
27.07.2015 08:20 13,0 C 96 % 997,5 hPa 0,0 l/m 10,2 km/h (2 Bft) SO 137 0 min 46 W/m 12,4 C 10,8 C 22,5 km/h (4 Bft)
27.07.2015 08:25 13,0 C 96 % 997,5 hPa 0,2 l/m 9,8 km/h (2 Bft) SO 125 0 min 30 W/m 12,4 C 11,0 C 16,1 km/h (3 Bft)
27.07.2015 08:30 12,9 C 96 % 997,4 hPa 0,0 l/m 8,7 km/h (2 Bft) S-SW 192 0 min 23 W/m 12,3 C 11,5 C 17,7 km/h (3 Bft)
27.07.2015 08:35 12,9 C 96 % 997,4 hPa 0,0 l/m 12,0 km/h (2 Bft) S-SO 164 0 min 25 W/m 12,3 C 9,9 C 22,5 km/h (4 Bft)
27.07.2015 08:40 12,9 C 96 % 997,3 hPa 0,0 l/m 8,1 km/h (2 Bft) S-SO 155 0 min 25 W/m 12,3 C 11,8 C 19,3 km/h (3 Bft)
27.07.2015 08:45 12,9 C 96 % 997,3 hPa 0,0 l/m 9,1 km/h (2 Bft) O 97 0 min 32 W/m 12,3 C 11,3 C 17,7 km/h (3 Bft)
27.07.2015 08:50 12,9 C 96 % 997,2 hPa 0,0 l/m 10,4 km/h (2 Bft) S-SO 158 0 min 49 W/m 12,3 C 10,6 C 19,3 km/h (3 Bft)
27.07.2015 08:55 13,0 C 96 % 997,2 hPa 0,0 l/m 8,9 km/h (2 Bft) SO 142 0 min 69 W/m 12,4 C 11,5 C 19,3 km/h (3 Bft)
27.07.2015 09:00 13,1 C 96 % 997,2 hPa 0,0 l/m 10,2 km/h (2 Bft) SO 138 0 min 53 W/m 12,5 C 10,9 C 22,5 km/h (4 Bft)
27.07.2015 09:05 13,2 C 97 % 997,2 hPa 0,0 l/m 8,1 km/h (2 Bft) S-SO 163 0 min 56 W/m 12,7 C 12,2 C 14,5 km/h (3 Bft)
27.07.2015 09:10 13,2 C 96 % 997,1 hPa 0,0 l/m 9,2 km/h (2 Bft) SO 132 0 min 65 W/m 12,6 C 11,5 C 16,1 km/h (3 Bft)
27.07.2015 09:15 13,2 C 96 % 997,1 hPa 0,0 l/m 11,2 km/h (2 Bft) S-SO 158 0 min 49 W/m 12,6 C 10,6 C 22,5 km/h (4 Bft)
27.07.2015 09:20 13,2 C 96 % 997,1 hPa 0,0 l/m 10,5 km/h (2 Bft) S-SO 153 0 min 86 W/m 12,6 C 10,9 C 17,7 km/h (3 Bft)
27.07.2015 09:25 13,3 C 96 % 997,0 hPa 0,0 l/m 7,9 km/h (2 Bft) S 174 0 min 53 W/m 12,7 C 12,4 C 17,7 km/h (3 Bft)
27.07.2015 09:30 13,3 C 96 % 997,1 hPa 0,0 l/m 8,4 km/h (2 Bft) SO 132 0 min 67 W/m 12,7 C 12,1 C 16,1 km/h (3 Bft)
27.07.2015 09:35 13,4 C 96 % 997,1 hPa 0,0 l/m 8,7 km/h (2 Bft) SO 144 0 min 81 W/m 12,8 C 12,0 C 17,7 km/h (3 Bft)
27.07.2015 09:40 13,5 C 96 % 996,9 hPa 0,0 l/m 8,7 km/h (2 Bft) S-SO 151 0 min 83 W/m 12,9 C 12,1 C 17,7 km/h (3 Bft)
27.07.2015 09:45 13,6 C 96 % 996,9 hPa 0,0 l/m 9,4 km/h (2 Bft) SO 132 0 min 120 W/m 13,0 C 11,9 C 20,9 km/h (4 Bft)
27.07.2015 09:50 13,8 C 96 % 996,9 hPa 0,0 l/m 8,0 km/h (2 Bft) O-NO 57 0 min 95 W/m 13,2 C 12,8 C 16,1 km/h (3 Bft)
27.07.2015 09:55 13,8 C 96 % 996,9 hPa 0,0 l/m 8,0 km/h (2 Bft) S 191 0 min 104 W/m 13,2 C 12,8 C 17,7 km/h (3 Bft)
27.07.2015 10:00 13,8 C 96 % 996,8 hPa 0,0 l/m 9,2 km/h (2 Bft) SO 132 0 min 90 W/m 13,2 C 12,2 C 16,1 km/h (3 Bft)
27.07.2015 10:05 13,8 C 95 % 996,9 hPa 0,0 l/m 10,9 km/h (2 Bft) S 183 0 min 98 W/m 13,0 C 11,4 C 19,3 km/h (3 Bft)
27.07.2015 10:10 13,9 C 95 % 996,8 hPa 0,0 l/m 9,2 km/h (2 Bft) S-SO 163 0 min 67 W/m 13,1 C 12,3 C 17,7 km/h (3 Bft)
27.07.2015 10:15 13,9 C 96 % 996,8 hPa 0,0 l/m 7,6 km/h (2 Bft) S-SO 147 0 min 67 W/m 13,3 C 13,2 C 14,5 km/h (3 Bft)
27.07.2015 10:20 14,1 C 96 % 996,9 hPa 0,0 l/m 7,7 km/h (2 Bft) SO 131 0 min 70 W/m 13,5 C 13,3 C 14,5 km/h (3 Bft)
27.07.2015 10:25 14,1 C 96 % 996,9 hPa 0,0 l/m 9,0 km/h (2 Bft) SO 125 0 min 120 W/m 13,5 C 12,6 C 20,9 km/h (4 Bft)
27.07.2015 10:30 14,2 C 95 % 996,9 hPa 0,0 l/m 9,3 km/h (2 Bft) S-SO 155 0 min 111 W/m 13,4 C 12,6 C 19,3 km/h (3 Bft)
27.07.2015 10:35 14,3 C 95 % 996,8 hPa 0,0 l/m 7,8 km/h (2 Bft) S-SO 158 0 min 100 W/m 13,5 C 13,5 C 17,7 km/h (3 Bft)
27.07.2015 10:40 14,4 C 96 % 996,7 hPa 0,0 l/m 7,4 km/h (2 Bft) O-SO 121 0 min 137 W/m 13,8 C 13,8 C 17,7 km/h (3 Bft)
27.07.2015 10:45 14,7 C 96 % 996,7 hPa 0,0 l/m 8,1 km/h (2 Bft) SO 138 0 min 271 W/m 14,1 C 13,7 C 17,7 km/h (3 Bft)
27.07.2015 10:50 14,8 C 94 % 996,8 hPa 0,0 l/m 9,4 km/h (2 Bft) SO 146 0 min 141 W/m 13,8 C 13,2 C 16,1 km/h (3 Bft)
27.07.2015 10:55 14,9 C 95 % 996,8 hPa 0,0 l/m 7,6 km/h (2 Bft) S-SO 163 0 min 111 W/m 14,1 C 14,2 C 19,3 km/h (3 Bft)
27.07.2015 11:00 15,0 C 95 % 996,8 hPa 0,0 l/m 8,0 km/h (2 Bft) S-SO 150 0 min 137 W/m 14,2 C 14,1 C 14,5 km/h (3 Bft)
27.07.2015 11:05 15,3 C 95 % 996,7 hPa 0,0 l/m 5,7 km/h (2 Bft) S 173 0 min 216 W/m 14,5 C 15,3 C 11,3 km/h (2 Bft)
27.07.2015 11:10 15,4 C 94 % 996,6 hPa 0,0 l/m 9,8 km/h (2 Bft) S-SO 165 0 min 156 W/m 14,4 C 13,6 C 20,9 km/h (4 Bft)
27.07.2015 11:15 15,4 C 93 % 996,6 hPa 0,0 l/m 9,3 km/h (2 Bft) S-SW 196 0 min 137 W/m 14,3 C 13,9 C 19,3 km/h (3 Bft)
27.07.2015 11:20 15,3 C 94 % 996,5 hPa 0,0 l/m 9,1 km/h (2 Bft) SO 138 0 min 135 W/m 14,3 C 13,9 C 19,3 km/h (3 Bft)
27.07.2015 11:25 15,4 C 95 % 996,6 hPa 0,0 l/m 6,3 km/h (2 Bft) S 188 0 min 130 W/m 14,6 C 15,4 C 14,5 km/h (3 Bft)
27.07.2015 11:30 15,3 C 95 % 996,6 hPa 0,0 l/m 8,7 km/h (2 Bft) S-SW 196 0 min 127 W/m 14,5 C 14,1 C 20,9 km/h (4 Bft)
27.07.2015 11:35 15,3 C 95 % 996,5 hPa 0,2 l/m 10,1 km/h (2 Bft) S 180 0 min 93 W/m 14,5 C 13,4 C 17,7 km/h (3 Bft)
27.07.2015 11:40 15,2 C 95 % 996,5 hPa 0,0 l/m 9,1 km/h (2 Bft) S-SO 163 0 min 84 W/m 14,4 C 13,8 C 17,7 km/h (3 Bft)
27.07.2015 11:45 15,2 C 96 % 996,5 hPa 0,0 l/m 7,9 km/h (2 Bft) O-SO 123 0 min 86 W/m 14,6 C 14,4 C 16,1 km/h (3 Bft)
27.07.2015 11:50 15,2 C 96 % 996,5 hPa 0,0 l/m 8,8 km/h (2 Bft) S 187 0 min 84 W/m 14,6 C 13,9 C 16,1 km/h (3 Bft)
27.07.2015 11:55 15,2 C 96 % 996,5 hPa 0,0 l/m 6,5 km/h (2 Bft) SO 141 0 min 86 W/m 14,6 C 15,2 C 16,1 km/h (3 Bft)
27.07.2015 12:00 15,3 C 96 % 996,5 hPa 0,2 l/m 8,3 km/h (2 Bft) S 175 0 min 121 W/m 14,7 C 14,3 C 19,3 km/h (3 Bft)
27.07.2015 12:05 15,3 C 96 % 996,4 hPa 0,0 l/m 7,1 km/h (2 Bft) S 182 0 min 70 W/m 14,7 C 14,9 C 16,1 km/h (3 Bft)
27.07.2015 12:10 15,4 C 96 % 996,4 hPa 0,0 l/m 8,0 km/h (2 Bft) S 191 0 min 148 W/m 14,8 C 14,5 C 16,1 km/h (3 Bft)
27.07.2015 12:15 15,6 C 97 % 996,3 hPa 0,0 l/m 8,2 km/h (2 Bft) S-SO 163 0 min 197 W/m 15,1 C 14,6 C 17,7 km/h (3 Bft)
27.07.2015 12:20 15,9 C 96 % 996,3 hPa 0,0 l/m 9,9 km/h (2 Bft) S-SO 161 0 min 227 W/m 15,3 C 14,2 C 17,7 km/h (3 Bft)
27.07.2015 12:25 16,1 C 96 % 996,3 hPa 0,0 l/m 9,1 km/h (2 Bft) S-SO 166 0 min 225 W/m 15,5 C 14,7 C 19,3 km/h (3 Bft)
27.07.2015 12:30 16,2 C 95 % 996,3 hPa 0,0 l/m 9,5 km/h (2 Bft) S 174 0 min 236 W/m 15,4 C 14,7 C 19,3 km/h (3 Bft)
27.07.2015 12:35 16,4 C 95 % 996,2 hPa 0,0 l/m 8,7 km/h (2 Bft) S-SO 167 0 min 264 W/m 15,6 C 15,2 C 14,5 km/h (3 Bft)
27.07.2015 12:40 16,4 C 95 % 996,2 hPa 0,0 l/m 10,2 km/h (2 Bft) S-SO 163 0 min 283 W/m 15,6 C 14,6 C 20,9 km/h (4 Bft)
27.07.2015 12:45 16,7 C 95 % 996,2 hPa 0,0 l/m 9,0 km/h (2 Bft) S 186 5 min 448 W/m 15,9 C 15,4 C 19,3 km/h (3 Bft)
27.07.2015 12:50 16,8 C 93 % 996,2 hPa 0,0 l/m 9,2 km/h (2 Bft) S 180 0 min 339 W/m 15,7 C 15,4 C 16,1 km/h (3 Bft)
27.07.2015 12:55 16,9 C 92 % 996,2 hPa 0,0 l/m 9,4 km/h (2 Bft) S-SO 159 0 min 230 W/m 15,6 C 15,5 C 17,7 km/h (3 Bft)
27.07.2015 13:00 17,1 C 93 % 996,2 hPa 0,0 l/m 6,7 km/h (2 Bft) S-SO 163 0 min 299 W/m 16,0 C 17,0 C 14,5 km/h (3 Bft)
27.07.2015 13:05 17,1 C 93 % 996,2 hPa 0,0 l/m 10,1 km/h (2 Bft) S 178 0 min 185 W/m 16,0 C 15,4 C 24,1 km/h (4 Bft)
27.07.2015 13:10 16,9 C 92 % 996,2 hPa 0,0 l/m 10,4 km/h (2 Bft) S-SO 155 0 min 229 W/m 15,6 C 15,1 C 17,7 km/h (3 Bft)
27.07.2015 13:15 16,9 C 91 % 996,1 hPa 0,0 l/m 9,0 km/h (2 Bft) S 180 0 min 225 W/m 15,4 C 15,6 C 17,7 km/h (3 Bft)
27.07.2015 13:20 17,1 C 91 % 996,1 hPa 0,0 l/m 8,7 km/h (2 Bft) S 184 0 min 279 W/m 15,6 C 16,0 C 19,3 km/h (3 Bft)
27.07.2015 13:25 17,2 C 91 % 996,1 hPa 0,0 l/m 9,7 km/h (2 Bft) O-SO 119 0 min 255 W/m 15,7 C 15,7 C 20,9 km/h (4 Bft)
27.07.2015 13:30 17,2 C 91 % 996,0 hPa 0,0 l/m 10,5 km/h (2 Bft) S-SO 163 0 min 253 W/m 15,7 C 15,4 C 17,7 km/h (3 Bft)
27.07.2015 13:35 17,3 C 90 % 995,9 hPa 0,0 l/m 9,9 km/h (2 Bft) S-SW 198 0 min 345 W/m 15,6 C 15,7 C 24,1 km/h (4 Bft)
27.07.2015 13:40 17,7 C 91 % 995,9 hPa 0,0 l/m 7,9 km/h (2 Bft) S-SO 148 0 min 427 W/m 16,2 C 17,0 C 17,7 km/h (3 Bft)
27.07.2015 13:45 18,3 C 89 % 995,9 hPa 0,0 l/m 9,1 km/h (2 Bft) S-SO 167 0 min 427 W/m 16,5 C 17,1 C 19,3 km/h (3 Bft)
27.07.2015 13:50 18,3 C 88 % 995,9 hPa 0,0 l/m 7,6 km/h (2 Bft) S 171 0 min 216 W/m 16,3 C 17,7 C 19,3 km/h (3 Bft)
27.07.2015 13:55 18,3 C 89 % 995,9 hPa 0,0 l/m 8,8 km/h (2 Bft) W-SW 249 0 min 200 W/m 16,5 C 17,2 C 17,7 km/h (3 Bft)
27.07.2015 14:00 18,2 C 86 % 995,8 hPa 0,0 l/m 12,2 km/h (2 Bft) S 175 0 min 323 W/m 15,8 C 15,9 C 24,1 km/h (4 Bft)
27.07.2015 14:05 18,4 C 86 % 995,8 hPa 0,0 l/m 10,4 km/h (2 Bft) S-SW 202 0 min 411 W/m 16,0 C 16,7 C 19,3 km/h (3 Bft)
27.07.2015 14:10 18,4 C 84 % 995,7 hPa 0,0 l/m 12,5 km/h (2 Bft) S-SW 194 0 min 202 W/m 15,6 C 16,0 C 25,7 km/h (4 Bft)
27.07.2015 14:15 18,3 C 85 % 995,6 hPa 0,0 l/m 10,1 km/h (2 Bft) S-SW 203 0 min 192 W/m 15,7 C 16,7 C 22,5 km/h (4 Bft)
27.07.2015 14:20 18,2 C 86 % 995,6 hPa 0,0 l/m 7,0 km/h (2 Bft) S-SW 205 0 min 234 W/m 15,8 C 17,9 C 14,5 km/h (3 Bft)
27.07.2015 14:25 18,5 C 85 % 995,5 hPa 0,0 l/m 7,5 km/h (2 Bft) SW 223 0 min 207 W/m 15,9 C 18,0 C 22,5 km/h (4 Bft)
27.07.2015 14:30 18,8 C 83 % 995,5 hPa 0,0 l/m 8,7 km/h (2 Bft) SW 228 0 min 332 W/m 15,8 C 17,8 C 19,3 km/h (3 Bft)
27.07.2015 14:35 19,2 C 81 % 995,5 hPa 0,0 l/m 11,2 km/h (2 Bft) W-SW 240 0 min 128 W/m 15,9 C 17,4 C 22,5 km/h (4 Bft)
27.07.2015 14:40 18,8 C 83 % 995,4 hPa 0,0 l/m 10,9 km/h (2 Bft) SW 223 0 min 385 W/m 15,8 C 17,0 C 19,3 km/h (3 Bft)
27.07.2015 14:45 19,1 C 82 % 995,3 hPa 0,0 l/m 9,9 km/h (2 Bft) S-SO 161 0 min 142 W/m 16,0 C 17,7 C 17,7 km/h (3 Bft)
27.07.2015 14:50 18,9 C 81 % 995,3 hPa 0,0 l/m 11,2 km/h (2 Bft) S 187 0 min 185 W/m 15,6 C 17,0 C 24,1 km/h (4 Bft)
27.07.2015 14:55 18,6 C 84 % 995,3 hPa 0,0 l/m 11,7 km/h (2 Bft) S 176 0 min 214 W/m 15,8 C 16,5 C 20,9 km/h (4 Bft)
27.07.2015 15:00 18,6 C 84 % 995,3 hPa 0,0 l/m 15,1 km/h (3 Bft) S 169 0 min 309 W/m 15,8 C 15,5 C 27,4 km/h (5 Bft)
27.07.2015 15:05 19,3 C 83 % 995,4 hPa 0,0 l/m 16,8 km/h (3 Bft) S-SW 213 5 min 698 W/m 16,3 C 16,0 C 25,7 km/h (4 Bft)
27.07.2015 15:10 19,4 C 80 % 995,5 hPa 0,0 l/m 21,0 km/h (4 Bft) S-SW 199 5 min 506 W/m 15,9 C 15,2 C 41,8 km/h (6 Bft)
27.07.2015 15:15 19,1 C 79 % 995,4 hPa 0,0 l/m 21,3 km/h (4 Bft) S-SW 213 0 min 278 W/m 15,4 C 14,8 C 37,0 km/h (5 Bft)
27.07.2015 15:20 18,7 C 82 % 995,5 hPa 0,0 l/m 16,7 km/h (3 Bft) SW 221 0 min 304 W/m 15,6 C 15,3 C 27,4 km/h (5 Bft)
27.07.2015 15:25 18,8 C 81 % 995,5 hPa 0,0 l/m 15,8 km/h (3 Bft) SW 229 0 min 302 W/m 15,5 C 15,6 C 27,4 km/h (5 Bft)
27.07.2015 15:30 18,8 C 80 % 995,6 hPa 0,0 l/m 18,8 km/h (3 Bft) SW 232 0 min 318 W/m 15,3 C 14,9 C 29,0 km/h (5 Bft)
27.07.2015 15:35 18,7 C 81 % 995,5 hPa 0,0 l/m 21,4 km/h (4 Bft) W-SW 244 0 min 234 W/m 15,4 C 14,3 C 32,2 km/h (5 Bft)
27.07.2015 15:40 18,7 C 83 % 995,4 hPa 0,0 l/m 14,6 km/h (3 Bft) SW 215 0 min 200 W/m 15,8 C 15,8 C 22,5 km/h (4 Bft)
27.07.2015 15:45 18,6 C 82 % 995,4 hPa 0,0 l/m 16,6 km/h (3 Bft) S 176 0 min 67 W/m 15,5 C 15,2 C 38,6 km/h (6 Bft)
27.07.2015 15:50 18,3 C 84 % 995,5 hPa 0,0 l/m 15,7 km/h (3 Bft) W-SW 243 0 min 151 W/m 15,5 C 15,0 C 30,6 km/h (5 Bft)
27.07.2015 15:55 18,0 C 83 % 995,4 hPa 0,0 l/m 20,3 km/h (4 Bft) SW 225 0 min 229 W/m 15,1 C 13,6 C 37,0 km/h (5 Bft)
27.07.2015 16:00 18,0 C 83 % 995,4 hPa 0,0 l/m 20,0 km/h (4 Bft) SW 217 0 min 192 W/m 15,1 C 13,6 C 35,4 km/h (5 Bft)
27.07.2015 16:05 18,0 C 83 % 995,4 hPa 0,0 l/m 23,0 km/h (4 Bft) SW 234 0 min 172 W/m 15,1 C 13,0 C 37,0 km/h (5 Bft)
27.07.2015 16:10 18,1 C 83 % 995,4 hPa 0,0 l/m 18,9 km/h (3 Bft) S-SW 211 0 min 246 W/m 15,2 C 14,0 C 32,2 km/h (5 Bft)
27.07.2015 16:15 18,2 C 82 % 995,4 hPa 0,0 l/m 19,5 km/h (3 Bft) S-SW 205 5 min 436 W/m 15,1 C 14,0 C 30,6 km/h (5 Bft)
27.07.2015 16:20 18,6 C 82 % 995,4 hPa 0,0 l/m 18,2 km/h (3 Bft) SW 231 0 min 316 W/m 15,5 C 14,8 C 32,2 km/h (5 Bft)
27.07.2015 16:25 18,7 C 82 % 995,5 hPa 0,0 l/m 16,2 km/h (3 Bft) SW 217 0 min 281 W/m 15,6 C 15,4 C 29,0 km/h (5 Bft)
27.07.2015 16:30 18,5 C 82 % 995,5 hPa 0,0 l/m 20,0 km/h (4 Bft) SW 234 0 min 301 W/m 15,4 C 14,3 C 30,6 km/h (5 Bft)
27.07.2015 16:35 18,4 C 82 % 995,5 hPa 0,0 l/m 20,8 km/h (4 Bft) SW 232 0 min 279 W/m 15,3 C 14,0 C 30,6 km/h (5 Bft)
27.07.2015 16:40 18,8 C 82 % 995,5 hPa 0,0 l/m 19,1 km/h (3 Bft) SW 218 5 min 594 W/m 15,7 C 14,8 C 29,0 km/h (5 Bft)
27.07.2015 16:45 18,8 C 79 % 995,5 hPa 0,0 l/m 20,2 km/h (4 Bft) W-SW 242 0 min 264 W/m 15,1 C 14,6 C 30,6 km/h (5 Bft)
27.07.2015 16:50 18,8 C 81 % 995,5 hPa 0,0 l/m 19,2 km/h (3 Bft) S-SO 156 0 min 306 W/m 15,5 C 14,8 C 29,0 km/h (5 Bft)
27.07.2015 16:55 18,7 C 81 % 995,5 hPa 0,0 l/m 18,1 km/h (3 Bft) SW 217 0 min 202 W/m 15,4 C 14,9 C 29,0 km/h (5 Bft)
27.07.2015 17:00 18,4 C 82 % 995,4 hPa 0,0 l/m 17,0 km/h (3 Bft) SW 221 0 min 272 W/m 15,3 C 14,8 C 29,0 km/h (5 Bft)
27.07.2015 17:05 18,4 C 82 % 995,5 hPa 0,0 l/m 20,2 km/h (4 Bft) SW 221 0 min 144 W/m 15,3 C 14,1 C 37,0 km/h (5 Bft)
27.07.2015 17:10 18,4 C 81 % 995,5 hPa 0,0 l/m 20,8 km/h (4 Bft) S-SW 209 5 min 459 W/m 15,1 C 14,0 C 37,0 km/h (5 Bft)
27.07.2015 17:15 18,7 C 81 % 995,6 hPa 0,0 l/m 21,2 km/h (4 Bft) S-SW 209 0 min 265 W/m 15,4 C 14,3 C 40,2 km/h (6 Bft)
27.07.2015 17:20 18,7 C 81 % 995,6 hPa 0,0 l/m 22,7 km/h (4 Bft) SW 223 0 min 160 W/m 15,4 C 14,0 C 33,8 km/h (5 Bft)
27.07.2015 17:25 18,5 C 81 % 995,6 hPa 0,0 l/m 22,9 km/h (4 Bft) SW 220 0 min 255 W/m 15,2 C 13,7 C 32,2 km/h (5 Bft)
27.07.2015 17:30 18,4 C 80 % 995,7 hPa 0,0 l/m 23,2 km/h (4 Bft) S-SW 208 0 min 153 W/m 14,9 C 13,5 C 37,0 km/h (5 Bft)
27.07.2015 17:35 18,3 C 82 % 995,8 hPa 0,0 l/m 20,4 km/h (4 Bft) SW 236 0 min 230 W/m 15,2 C 13,9 C 33,8 km/h (5 Bft)
27.07.2015 17:40 18,4 C 81 % 995,8 hPa 0,0 l/m 22,0 km/h (4 Bft) SW 233 0 min 102 W/m 15,1 C 13,7 C 37,0 km/h (5 Bft)
27.07.2015 17:45 18,2 C 82 % 995,8 hPa 0,0 l/m 20,8 km/h (4 Bft) W-SW 242 0 min 116 W/m 15,1 C 13,7 C 30,6 km/h (5 Bft)
27.07.2015 17:50 18,0 C 83 % 995,8 hPa 0,0 l/m 18,6 km/h (3 Bft) W-SW 246 0 min 207 W/m 15,1 C 13,9 C 30,6 km/h (5 Bft)
27.07.2015 17:55 18,1 C 83 % 995,8 hPa 0,0 l/m 18,0 km/h (3 Bft) SW 233 0 min 246 W/m 15,2 C 14,2 C 27,4 km/h (5 Bft)
27.07.2015 18:00 18,1 C 83 % 995,9 hPa 0,0 l/m 19,7 km/h (3 Bft) SW 224 5 min 290 W/m 15,2 C 13,8 C 32,2 km/h (5 Bft)
27.07.2015 18:05 18,3 C 83 % 995,8 hPa 0,0 l/m 19,4 km/h (3 Bft) SW 233 0 min 214 W/m 15,4 C 14,1 C 33,8 km/h (5 Bft)
27.07.2015 18:10 18,3 C 83 % 995,8 hPa 0,0 l/m 18,1 km/h (3 Bft) W-SW 257 0 min 178 W/m 15,4 C 14,4 C 29,0 km/h (5 Bft)
27.07.2015 18:15 18,3 C 82 % 995,8 hPa 0,0 l/m 17,3 km/h (3 Bft) W-SW 244 0 min 56 W/m 15,2 C 14,6 C 29,0 km/h (5 Bft)
27.07.2015 18:20 17,9 C 83 % 995,9 hPa 0,0 l/m 18,3 km/h (3 Bft) S-SW 211 0 min 86 W/m 15,0 C 13,9 C 29,0 km/h (5 Bft)
27.07.2015 18:25 17,8 C 84 % 995,9 hPa 0,0 l/m 18,4 km/h (3 Bft) SW 228 0 min 111 W/m 15,1 C 13,7 C 27,4 km/h (5 Bft)
27.07.2015 18:30 17,7 C 85 % 995,9 hPa 0,0 l/m 16,8 km/h (3 Bft) W-SW 254 0 min 56 W/m 15,1 C 14,0 C 25,7 km/h (4 Bft)
27.07.2015 18:35 17,6 C 85 % 996,0 hPa 0,0 l/m 18,6 km/h (3 Bft) SW 232 0 min 125 W/m 15,0 C 13,4 C 30,6 km/h (5 Bft)
27.07.2015 18:40 17,6 C 85 % 996,1 hPa 0,0 l/m 23,5 km/h (4 Bft) W-SW 238 0 min 111 W/m 15,0 C 12,4 C 37,0 km/h (5 Bft)
27.07.2015 18:45 17,4 C 84 % 996,2 hPa 0,0 l/m 23,7 km/h (4 Bft) SW 221 0 min 58 W/m 14,7 C 12,1 C 38,6 km/h (6 Bft)
27.07.2015 18:50 17,3 C 86 % 996,2 hPa 0,0 l/m 14,6 km/h (3 Bft) S-SW 213 0 min 26 W/m 14,9 C 14,1 C 22,5 km/h (4 Bft)
27.07.2015 18:55 17,2 C 87 % 996,2 hPa 0,0 l/m 16,4 km/h (3 Bft) SW 219 0 min 53 W/m 15,0 C 13,5 C 25,7 km/h (4 Bft)
27.07.2015 19:00 17,2 C 87 % 996,2 hPa 0,0 l/m 15,5 km/h (3 Bft) W 262 0 min 77 W/m 15,0 C 13,7 C 25,7 km/h (4 Bft)
27.07.2015 19:05 17,2 C 87 % 996,1 hPa 0,0 l/m 18,3 km/h (3 Bft) SW 224 0 min 128 W/m 15,0 C 13,0 C 27,4 km/h (5 Bft)
27.07.2015 19:10 17,3 C 87 % 996,2 hPa 0,0 l/m 14,8 km/h (3 Bft) W-SW 250 0 min 128 W/m 15,1 C 14,0 C 24,1 km/h (4 Bft)
27.07.2015 19:15 17,3 C 87 % 996,2 hPa 0,0 l/m 16,3 km/h (3 Bft) W-SW 250 0 min 67 W/m 15,1 C 13,6 C 27,4 km/h (5 Bft)
27.07.2015 19:20 17,2 C 87 % 996,2 hPa 0,0 l/m 17,6 km/h (3 Bft) W-SW 250 0 min 74 W/m 15,0 C 13,2 C 27,4 km/h (5 Bft)
27.07.2015 19:25 17,2 C 87 % 996,2 hPa 0,0 l/m 15,6 km/h (3 Bft) S-SW 207 0 min 104 W/m 15,0 C 13,7 C 29,0 km/h (5 Bft)
27.07.2015 19:30 17,3 C 88 % 996,2 hPa 0,0 l/m 12,6 km/h (3 Bft) SW 231 0 min 93 W/m 15,3 C 14,7 C 22,5 km/h (4 Bft)
27.07.2015 19:35 17,3 C 87 % 996,2 hPa 0,0 l/m 14,5 km/h (3 Bft) W-SW 248 0 min 37 W/m 15,1 C 14,1 C 25,7 km/h (4 Bft)
27.07.2015 19:40 17,4 C 86 % 996,1 hPa 0,0 l/m 17,5 km/h (3 Bft) SW 223 0 min 26 W/m 15,0 C 13,4 C 27,4 km/h (5 Bft)
27.07.2015 19:45 17,4 C 86 % 996,2 hPa 0,0 l/m 18,5 km/h (3 Bft) SW 219 0 min 26 W/m 15,0 C 13,2 C 29,0 km/h (5 Bft)
27.07.2015 19:50 17,3 C 86 % 996,2 hPa 0,0 l/m 19,0 km/h (3 Bft) SW 215 0 min 76 W/m 14,9 C 12,9 C 30,6 km/h (5 Bft)
27.07.2015 19:55 17,3 C 87 % 996,1 hPa 0,0 l/m 19,1 km/h (3 Bft) W 259 0 min 26 W/m 15,1 C 12,9 C 30,6 km/h (5 Bft)
27.07.2015 20:00 17,1 C 89 % 996,3 hPa 0,4 l/m 16,7 km/h (3 Bft) SW 232 0 min 40 W/m 15,3 C 13,3 C 27,4 km/h (5 Bft)
27.07.2015 20:05 16,7 C 91 % 996,3 hPa 0,2 l/m 19,2 km/h (3 Bft) W-SW 241 0 min 37 W/m 15,2 C 12,1 C 30,6 km/h (5 Bft)
27.07.2015 20:10 16,4 C 92 % 996,3 hPa 0,0 l/m 16,8 km/h (3 Bft) W-SW 247 0 min 46 W/m 15,1 C 12,4 C 27,4 km/h (5 Bft)
27.07.2015 20:15 16,3 C 92 % 996,4 hPa 0,2 l/m 16,0 km/h (3 Bft) W 259 0 min 28 W/m 15,0 C 12,5 C 24,1 km/h (4 Bft)
27.07.2015 20:20 16,3 C 93 % 996,4 hPa 0,2 l/m 13,7 km/h (3 Bft) W 272 0 min 26 W/m 15,2 C 13,2 C 20,9 km/h (4 Bft)
27.07.2015 20:25 16,2 C 93 % 996,4 hPa 0,0 l/m 14,3 km/h (3 Bft) W 259 0 min 49 W/m 15,1 C 12,9 C 22,5 km/h (4 Bft)
27.07.2015 20:30 16,3 C 94 % 996,3 hPa 0,0 l/m 14,8 km/h (3 Bft) W-SW 247 0 min 30 W/m 15,3 C 12,8 C 24,1 km/h (4 Bft)
27.07.2015 20:35 16,3 C 94 % 996,3 hPa 0,2 l/m 12,5 km/h (2 Bft) S-SW 209 0 min 16 W/m 15,3 C 13,6 C 22,5 km/h (4 Bft)
27.07.2015 20:40 16,3 C 94 % 996,4 hPa 0,2 l/m 12,6 km/h (3 Bft) S-SW 213 0 min 9 W/m 15,3 C 13,6 C 22,5 km/h (4 Bft)
27.07.2015 20:45 16,2 C 94 % 996,3 hPa 0,2 l/m 13,5 km/h (3 Bft) S-SW 212 0 min 0 W/m 15,2 C 13,1 C 19,3 km/h (3 Bft)
27.07.2015 20:50 16,2 C 94 % 996,3 hPa 0,4 l/m 14,6 km/h (3 Bft) SW 215 0 min 0 W/m 15,2 C 12,8 C 22,5 km/h (4 Bft)
27.07.2015 20:55 16,2 C 94 % 996,3 hPa 0,0 l/m 15,6 km/h (3 Bft) SW 232 0 min 0 W/m 15,2 C 12,5 C 32,2 km/h (5 Bft)
27.07.2015 21:00 16,1 C 94 % 996,4 hPa 0,2 l/m 18,3 km/h (3 Bft) W-SW 241 0 min 0 W/m 15,1 C 11,6 C 29,0 km/h (5 Bft)
27.07.2015 21:05 16,1 C 94 % 996,4 hPa 0,0 l/m 15,6 km/h (3 Bft) SW 223 0 min 0 W/m 15,1 C 12,3 C 27,4 km/h (5 Bft)
27.07.2015 21:10 16,1 C 94 % 996,3 hPa 0,2 l/m 16,5 km/h (3 Bft) SW 232 0 min 0 W/m 15,1 C 12,1 C 24,1 km/h (4 Bft)
27.07.2015 21:15 16,1 C 94 % 996,3 hPa 0,2 l/m 19,0 km/h (3 Bft) SW 227 0 min 0 W/m 15,1 C 11,4 C 32,2 km/h (5 Bft)
27.07.2015 21:20 16,0 C 94 % 996,3 hPa 0,2 l/m 19,3 km/h (3 Bft) SW 216 0 min 0 W/m 15,0 C 11,2 C 29,0 km/h (5 Bft)
27.07.2015 21:25 16,0 C 94 % 996,4 hPa 0,2 l/m 20,6 km/h (4 Bft) S-SW 209 0 min 0 W/m 15,0 C 10,9 C 37,0 km/h (5 Bft)
27.07.2015 21:30 15,9 C 94 % 996,4 hPa 0,4 l/m 23,0 km/h (4 Bft) S-SW 199 0 min 0 W/m 14,9 C 10,2 C 35,4 km/h (5 Bft)
27.07.2015 21:35 15,8 C 94 % 996,5 hPa 0,6 l/m 22,5 km/h (4 Bft) W-SW 256 0 min 0 W/m 14,8 C 10,2 C 32,2 km/h (5 Bft)
27.07.2015 21:40 15,8 C 94 % 996,6 hPa 0,4 l/m 21,7 km/h (4 Bft) SW 216 0 min 0 W/m 14,8 C 10,4 C 35,4 km/h (5 Bft)
27.07.2015 21:45 15,8 C 94 % 996,6 hPa 0,6 l/m 19,5 km/h (3 Bft) W-SW 238 0 min 0 W/m 14,8 C 10,9 C 33,8 km/h (5 Bft)
27.07.2015 21:50 15,7 C 94 % 996,8 hPa 0,2 l/m 23,3 km/h (4 Bft) SW 227 0 min 0 W/m 14,7 C 9,9 C 35,4 km/h (5 Bft)
27.07.2015 21:55 15,6 C 94 % 996,7 hPa 0,4 l/m 22,7 km/h (4 Bft) S-SW 213 0 min 0 W/m 14,6 C 9,9 C 38,6 km/h (6 Bft)
27.07.2015 22:00 15,6 C 94 % 996,7 hPa 0,2 l/m 19,6 km/h (3 Bft) S-SW 207 0 min 0 W/m 14,6 C 10,6 C 32,2 km/h (5 Bft)
27.07.2015 22:05 15,6 C 95 % 996,7 hPa 0,2 l/m 16,7 km/h (3 Bft) SW 235 0 min 0 W/m 14,8 C 11,4 C 27,4 km/h (5 Bft)
27.07.2015 22:10 15,4 C 94 % 996,6 hPa 0,0 l/m 18,5 km/h (3 Bft) S-SW 199 0 min 0 W/m 14,4 C 10,7 C 29,0 km/h (5 Bft)
27.07.2015 22:15 15,4 C 95 % 996,6 hPa 0,0 l/m 15,7 km/h (3 Bft) W 276 0 min 0 W/m 14,6 C 11,5 C 24,1 km/h (4 Bft)
27.07.2015 22:20 15,4 C 95 % 996,7 hPa 0,0 l/m 16,3 km/h (3 Bft) SW 236 0 min 0 W/m 14,6 C 11,3 C 25,7 km/h (4 Bft)
27.07.2015 22:25 15,4 C 95 % 996,7 hPa 0,0 l/m 14,9 km/h (3 Bft) SW 219 0 min 0 W/m 14,6 C 11,7 C 20,9 km/h (4 Bft)
27.07.2015 22:30 15,3 C 95 % 996,6 hPa 0,0 l/m 14,6 km/h (3 Bft) SW 217 0 min 0 W/m 14,5 C 11,7 C 22,5 km/h (4 Bft)
27.07.2015 22:35 15,3 C 95 % 996,7 hPa 0,4 l/m 14,8 km/h (3 Bft) SW 227 0 min 0 W/m 14,5 C 11,6 C 19,3 km/h (3 Bft)
27.07.2015 22:40 15,3 C 95 % 996,5 hPa 0,6 l/m 13,4 km/h (3 Bft) SW 217 0 min 0 W/m 14,5 C 12,1 C 25,7 km/h (4 Bft)
27.07.2015 22:45 15,3 C 95 % 996,6 hPa 0,4 l/m 12,1 km/h (2 Bft) SW 227 0 min 0 W/m 14,5 C 12,6 C 19,3 km/h (3 Bft)
27.07.2015 22:50 15,3 C 95 % 996,5 hPa 0,6 l/m 11,3 km/h (2 Bft) W 261 0 min 0 W/m 14,5 C 12,9 C 20,9 km/h (4 Bft)
27.07.2015 22:55 15,4 C 95 % 996,5 hPa 0,2 l/m 11,3 km/h (2 Bft) S-SW 211 0 min 0 W/m 14,6 C 13,0 C 20,9 km/h (4 Bft)
27.07.2015 23:00 15,5 C 95 % 996,5 hPa 0,0 l/m 14,1 km/h (3 Bft) SW 217 0 min 0 W/m 14,7 C 12,1 C 25,7 km/h (4 Bft)
27.07.2015 23:05 15,6 C 95 % 996,5 hPa 0,0 l/m 14,7 km/h (3 Bft) S-SW 210 0 min 0 W/m 14,8 C 12,0 C 22,5 km/h (4 Bft)
27.07.2015 23:10 15,7 C 95 % 996,5 hPa 0,0 l/m 17,0 km/h (3 Bft) SW 229 0 min 0 W/m 14,9 C 11,4 C 25,7 km/h (4 Bft)
27.07.2015 23:15 15,7 C 95 % 996,5 hPa 0,2 l/m 19,3 km/h (3 Bft) SW 216 0 min 0 W/m 14,9 C 10,8 C 32,2 km/h (5 Bft)
27.07.2015 23:20 15,7 C 95 % 996,4 hPa 0,0 l/m 16,8 km/h (3 Bft) SW 224 0 min 0 W/m 14,9 C 11,5 C 27,4 km/h (5 Bft)
27.07.2015 23:25 15,7 C 95 % 996,5 hPa 0,0 l/m 16,1 km/h (3 Bft) SW 231 0 min 0 W/m 14,9 C 11,7 C 25,7 km/h (4 Bft)
27.07.2015 23:30 15,8 C 95 % 996,5 hPa 0,0 l/m 16,2 km/h (3 Bft) SW 222 0 min 0 W/m 15,0 C 11,8 C 32,2 km/h (5 Bft)
27.07.2015 23:35 15,7 C 95 % 996,5 hPa 0,6 l/m 19,4 km/h (3 Bft) W 259 0 min 0 W/m 14,9 C 10,8 C 33,8 km/h (5 Bft)
27.07.2015 23:40 15,7 C 95 % 996,5 hPa 1,4 l/m 16,6 km/h (3 Bft) SW 214 0 min 0 W/m 14,9 C 11,6 C 24,1 km/h (4 Bft)
27.07.2015 23:45 15,6 C 95 % 996,4 hPa 0,2 l/m 12,6 km/h (3 Bft) SW 215 0 min 0 W/m 14,8 C 12,7 C 22,5 km/h (4 Bft)
27.07.2015 23:50 15,6 C 95 % 996,4 hPa 0,4 l/m 13,8 km/h (3 Bft) SW 214 0 min 0 W/m 14,8 C 12,3 C 25,7 km/h (4 Bft)
27.07.2015 23:55 15,6 C 96 % 996,4 hPa 0,2 l/m 12,9 km/h (3 Bft) SW 233 0 min 0 W/m 15,0 C 12,6 C 22,5 km/h (4 Bft)
_ Min-Zeit 05:25 15:15 14:45 - 02:55 - - - - 05:25 08:35 00:00
Minimum _ 12,8 C 79 % 995,3 hPa - 2,1 km/h (1 Bft) - - - - 11,9 C 9,9 C 4,8 km/h (1 Bft)
_ Max-Zeit 15:15 09:05 00:00 23:40 18:45 - - 12:45 15:05 13:45 14:25 15:10
Maximum _ 19,5 C 97 % 1004,0 hPa 1,4 l/m 23,7 km/h
SW (4 Bft)
- - 5 min 698 W/m 16,5 C 18,0 C 41,8 km/h
SW (6 Bft)
Durchschnitt _ 15,3 C 92 % 997,7 hPa #12,4 l/m 11,2 km/h (2 Bft) SW - #35 min. 151 W/m 13,9 C 13,2 C 20,5 km/h (4 Bft)
copyright by Holger Just